GIPSM EGAC-EGPK

Flight info

Callsign GIPSM
Flight time 0h 30m
Altitude 3500
Route GROOMSPORT DCT TRN
Aircraft BE58/L-SDFGRY/C

Departure

Time 2026-04-26 15:37
Airport George Best Belfast City Airport (EGAC)

Arrival

Time 2026-04-26 16:08
Airport Glasgow Prestwick Airport (EGPK)
Time Latitude Longitude Altitude Speed Heading
2026-04-26 15:32 54.61115 -5.87652 14 ft 0 kts
2026-04-26 15:35 54.61161 -5.87661 14 ft 10 kts 353°
2026-04-26 15:35 54.61243 -5.87642 14 ft 13 kts 342°
2026-04-26 15:35 54.61316 -5.87772 14 ft 16 kts 322°
2026-04-26 15:35 54.61406 -5.87728 14 ft 21 kts 33°
2026-04-26 15:36 54.61655 -5.87434 14 ft 67 kts 37°
2026-04-26 15:36 54.62120 -5.86879 43 ft 90 kts 36°
2026-04-26 15:36 54.62631 -5.86245 226 ft 92 kts 34°
2026-04-26 15:36 54.63195 -5.85587 338 ft 107 kts 31°
2026-04-26 15:37 54.63871 -5.84921 492 ft 115 kts 29°
2026-04-26 15:37 54.64551 -5.84129 647 ft 122 kts 37°
2026-04-26 15:37 54.65180 -5.83106 836 ft 125 kts 48°
2026-04-26 15:37 54.65641 -5.81877 1065 ft 125 kts 59°
2026-04-26 15:38 54.66093 -5.80516 1150 ft 133 kts 57°
2026-04-26 15:38 54.66578 -5.79060 1186 ft 142 kts 60°
2026-04-26 15:38 54.66996 -5.77540 1411 ft 137 kts 65°
2026-04-26 15:38 54.67316 -5.75974 1509 ft 143 kts 73°
2026-04-26 15:39 54.67551 -5.74295 1647 ft 143 kts 76°
2026-04-26 15:39 54.67721 -5.72608 1808 ft 142 kts 81°
2026-04-26 15:39 54.67809 -5.70854 1762 ft 150 kts 84°
2026-04-26 15:39 54.67839 -5.69635 1780 ft 150 kts 87°
2026-04-26 15:40 54.67777 -5.67133 1769 ft 155 kts 93°
2026-04-26 15:40 54.67703 -5.65213 1807 ft 153 kts 93°
2026-04-26 15:40 54.67639 -5.63375 1847 ft 153 kts 92°
2026-04-26 15:40 54.67601 -5.61509 1848 ft 154 kts 90°
2026-04-26 15:41 54.67600 -5.59668 1928 ft 154 kts 88°
2026-04-26 15:41 54.67600 -5.57819 2246 ft 147 kts 91°
2026-04-26 15:41 54.67541 -5.56048 2472 ft 148 kts 93°
2026-04-26 15:41 54.67469 -5.54183 2638 ft 152 kts 92°
2026-04-26 15:42 54.67410 -5.52297 2915 ft 149 kts 92°
2026-04-26 15:42 54.67483 -5.50455 3061 ft 154 kts 74°
2026-04-26 15:42 54.67941 -5.48700 3159 ft 155 kts 61°
2026-04-26 15:42 54.68445 -5.46980 3219 ft 158 kts 62°
2026-04-26 15:43 54.68960 -5.45167 3246 ft 161 kts 63°
2026-04-26 15:43 54.69443 -5.43404 3352 ft 159 kts 64°
2026-04-26 15:43 54.70410 -5.39710 3338 ft 159 kts 57°
2026-04-26 15:44 54.71101 -5.38120 3337 ft 159 kts 45°
2026-04-26 15:44 54.72822 -5.35616 3352 ft 158 kts 36°
2026-04-26 15:44 54.73683 -5.34362 3295 ft 162 kts 42°
2026-04-26 15:45 54.75236 -5.31565 3313 ft 160 kts 40°
2026-04-26 15:45 54.76110 -5.30393 3294 ft 160 kts 31°
2026-04-26 15:46 54.78009 -5.28389 3300 ft 159 kts 30°
2026-04-26 15:46 54.78960 -5.27354 3285 ft 160 kts 31°
2026-04-26 15:46 54.79882 -5.26284 3298 ft 159 kts 33°
2026-04-26 15:46 54.80479 -5.25533 3305 ft 159 kts 34°
2026-04-26 15:47 54.81690 -5.24102 3305 ft 159 kts 31°
2026-04-26 15:47 54.83540 -5.21977 3303 ft 159 kts 33°
2026-04-26 15:47 54.84455 -5.20922 3307 ft 158 kts 32°
2026-04-26 15:48 54.85379 -5.19897 3305 ft 158 kts 31°
2026-04-26 15:48 54.86318 -5.18899 3306 ft 158 kts 29°
2026-04-26 15:48 54.87275 -5.17945 3290 ft 159 kts 28°
2026-04-26 15:48 54.88244 -5.17005 3286 ft 159 kts 28°
2026-04-26 15:49 54.89213 -5.16051 3281 ft 160 kts 28°
2026-04-26 15:49 54.90177 -5.15081 3274 ft 160 kts 28°
2026-04-26 15:49 54.91126 -5.14129 3295 ft 158 kts 28°
2026-04-26 15:49 54.92098 -5.13190 3282 ft 159 kts 27°
2026-04-26 15:50 54.93080 -5.12267 3294 ft 158 kts 26°
2026-04-26 15:50 54.94074 -5.11457 3299 ft 158 kts 22°
2026-04-26 15:50 54.95082 -5.10716 3288 ft 158 kts 21°
2026-04-26 15:50 54.96093 -5.09988 3299 ft 158 kts 21°
2026-04-26 15:51 54.97109 -5.09232 3300 ft 158 kts 22°
2026-04-26 15:51 54.98097 -5.08432 3302 ft 158 kts 25°
2026-04-26 15:51 54.99066 -5.07543 3298 ft 158 kts 28°
2026-04-26 15:51 55.00001 -5.06529 3296 ft 159 kts 33°
2026-04-26 15:52 55.00917 -5.05448 3295 ft 159 kts 31°
2026-04-26 15:52 55.01869 -5.04460 3295 ft 158 kts 27°
2026-04-26 15:52 55.02834 -5.03563 3296 ft 158 kts 25°
2026-04-26 15:52 55.03493 -5.02989 3297 ft 158 kts 24°
2026-04-26 15:53 55.04837 -5.01936 3295 ft 158 kts 19°
2026-04-26 15:53 55.05866 -5.01299 3294 ft 158 kts 16°
2026-04-26 15:53 55.06913 -5.00756 3294 ft 158 kts 13°
2026-04-26 15:53 55.07977 -5.00264 3301 ft 157 kts 13°
2026-04-26 15:54 55.09029 -4.99748 3302 ft 158 kts 14°
2026-04-26 15:54 55.10070 -4.99154 3302 ft 158 kts 18°
2026-04-26 15:54 55.11101 -4.98438 3308 ft 158 kts 22°
2026-04-26 15:54 55.12058 -4.97628 3310 ft 158 kts 25°
2026-04-26 15:55 55.13034 -4.96721 3317 ft 158 kts 27°
2026-04-26 15:55 55.13971 -4.95775 3318 ft 158 kts 30°
2026-04-26 15:55 55.14853 -4.94785 3308 ft 159 kts 32°
2026-04-26 15:55 55.15752 -4.93624 3301 ft 160 kts 37°
2026-04-26 15:56 55.16591 -4.92331 3302 ft 161 kts 43°
2026-04-26 15:56 55.17347 -4.90883 3305 ft 161 kts 50°
2026-04-26 15:56 55.18131 -4.89511 3287 ft 161 kts 36°
2026-04-26 15:56 55.19080 -4.88486 3281 ft 160 kts 23°
2026-04-26 15:57 55.20133 -4.87834 3282 ft 159 kts 11°
2026-04-26 15:57 55.21223 -4.87541 3280 ft 158 kts
2026-04-26 15:57 55.22314 -4.87558 3295 ft 156 kts 353°
2026-04-26 15:57 55.23030 -4.87720 3295 ft 156 kts 348°
2026-04-26 15:58 55.24449 -4.88172 3271 ft 157 kts 354°
2026-04-26 15:58 55.25548 -4.88032 3129 ft 163 kts 11°
2026-04-26 15:58 55.26601 -4.87302 3087 ft 161 kts 26°
2026-04-26 15:58 55.27585 -4.86386 3056 ft 160 kts 27°
2026-04-26 15:59 55.28560 -4.85361 2899 ft 166 kts 32°
2026-04-26 15:59 55.29463 -4.84150 2880 ft 162 kts 40°
2026-04-26 15:59 55.30325 -4.82852 2796 ft 163 kts 37°
2026-04-26 15:59 55.31245 -4.81677 2699 ft 165 kts 32°
2026-04-26 16:00 55.32196 -4.80590 2671 ft 162 kts 30°
2026-04-26 16:00 55.33165 -4.79566 2587 ft 163 kts 27°
2026-04-26 16:00 55.34163 -4.78619 2520 ft 163 kts 26°
2026-04-26 16:00 55.35162 -4.77697 2476 ft 162 kts 25°
2026-04-26 16:01 55.36147 -4.76760 2392 ft 164 kts 28°
2026-04-26 16:01 55.37117 -4.75677 2338 ft 163 kts 34°
2026-04-26 16:01 55.38028 -4.74530 2299 ft 162 kts 34°
2026-04-26 16:01 55.38970 -4.73397 2196 ft 165 kts 31°
2026-04-26 16:02 55.39937 -4.72246 2047 ft 169 kts 34°
2026-04-26 16:02 55.40831 -4.70915 1932 ft 169 kts 46°
2026-04-26 16:02 55.41619 -4.69398 1883 ft 166 kts 43°
2026-04-26 16:02 55.42154 -4.68432 1898 ft 161 kts 47°
2026-04-26 16:03 55.43122 -4.66423 1814 ft 162 kts 50°
2026-04-26 16:03 55.43845 -4.64912 1755 ft 162 kts 45°
2026-04-26 16:03 55.44675 -4.63583 1686 ft 162 kts 39°
2026-04-26 16:03 55.45373 -4.62014 1531 ft 169 kts 68°
2026-04-26 16:04 55.45407 -4.59973 1429 ft 168 kts 108°
2026-04-26 16:04 55.44944 -4.58106 1437 ft 161 kts 115°
2026-04-26 16:04 55.44451 -4.56383 1427 ft 158 kts 119°
2026-04-26 16:04 55.43970 -4.54725 1439 ft 151 kts 110°
2026-04-26 16:05 55.43990 -4.52936 1465 ft 145 kts 72°
2026-04-26 16:05 55.44562 -4.51521 1462 ft 142 kts 35°
2026-04-26 16:05 55.45374 -4.50544 1463 ft 141 kts 32°
2026-04-26 16:05 55.46239 -4.49712 1395 ft 142 kts 12°
2026-04-26 16:06 55.47127 -4.49870 1334 ft 125 kts 331°
2026-04-26 16:06 55.47831 -4.50717 1184 ft 122 kts 316°
2026-04-26 16:06 55.48332 -4.51925 1010 ft 121 kts 300°
2026-04-26 16:06 55.48765 -4.53181 830 ft 119 kts 299°
2026-04-26 16:07 55.49169 -4.54371 612 ft 108 kts 299°
2026-04-26 16:07 55.49540 -4.55464 409 ft 102 kts 300°
2026-04-26 16:07 55.49908 -4.56463 226 ft 90 kts 299°
2026-04-26 16:07 55.50211 -4.57362 90 ft 79 kts 299°
2026-04-26 16:08 55.50455 -4.58067 69 ft 49 kts 303°
2026-04-26 16:08 55.50557 -4.58374 69 ft 37 kts 313°
2026-04-26 16:08 55.50715 -4.58835 69 ft 29 kts 300°
2026-04-26 16:08 55.50756 -4.59064 69 ft 15 kts 244°
2026-04-26 16:09 55.50717 -4.59224 68 ft 12 kts 245°
2026-04-26 16:09 55.50653 -4.59215 69 ft 14 kts 122°
2026-04-26 16:09 55.50599 -4.59057 69 ft 16 kts 120°
2026-04-26 16:09 55.50543 -4.58868 69 ft 18 kts 113°
2026-04-26 16:10 55.50497 -4.58693 69 ft 16 kts 119°
2026-04-26 16:10 55.50434 -4.58513 69 ft 18 kts 121°
2026-04-26 16:10 55.50373 -4.58347 68 ft 12 kts 137°
2026-04-26 16:10 55.50283 -4.58325 69 ft 14 kts 149°
2026-04-26 16:11 55.50226 -4.58267 69 ft 0 kts 116°